sat.trackr.live / text

‹ back to catalog

COMSATBW-1

NORAD 35943 · 2009-054B

PAYLOAD ACTIVE UNKNOWN

§ Identity

Operator
Country
GER
Launch date
2009-10-01
Launch site
FRGUI
Launch vehicle
Mass (kg)
RCS (m²)
7.94

Purposes: comms

External: N2YO · Heavens-Above · Gunter

§ Orbital elements

Epoch: 2026-05-25T04:02:38.036256Z

Period
1,436.08 min
Inclination
0.0669°
Eccentricity
0.0003311
Mean motion
1.00273137 rev/d
Perigee alt
35,772.3 km
Apogee alt
35,800.2 km
Semi-major
42,164.4 km
B*
0.0000e+0
RAAN
89.7980°
Arg perigee
339.3620°
Mean anomaly
297.2676°
Rev number
6,107

§ Raw data

COMSATBW-11 35943U 09054B   26145.16849579  .00000022  00000+0  00000+0 0  99912 35943   0.0669  89.7980 0003311 339.3620 297.2676  1.00273137 61079

JSON: /api/v1/satellites/35943 · /tle

For live sub-satellite position, see the globe view (requires WebGL).

§ Visibility from observer

Set your observer location to see the next 7 days of passes ≥ 10°. The values pass through the URL so the page stays shareable.

No JS? Fill the form by hand. The geolocation button needs JavaScript.